Regional Weather Roundup
Issued by NWS Boston, MA

Home | Current Version | Previous Version | Text Only | Print | Product List | Glossary On
Versions: 1 2 3 4 5 6 7 8 9 10 11 12 13 14 15 16 17 18 19 20 21 22 23 24 25 26 27
000
ASUS41 KBOX 200510
RWRBOX

REGIONAL WEATHER ROUNDUP
NATIONAL WEATHER SERVICE TAUNTON MA
100 AM EDT WED SEP 20 2017

NOTE:  "FAIR" INDICATES FEW OR NO CLOUDS BELOW 12,000 FEET WITH NO
SIGNIFICANT WEATHER AND/OR OBSTRUCTIONS TO VISIBILITY.

MAZALL-200600-
EASTERN MASSACHUSETTS

CITY           SKY/WX    TMP DP  RH WIND       PRES   REMARKS
BOSTON         CLOUDY    64  63  96 N16       29.95F FOG
BEVERLY        CLOUDY    63  63 100 N12G20    29.96F FOG
LAWRENCE       CLOUDY    67  65  93 NE13      29.99F
BEDFORD        CLOUDY    65  62  90 N12       29.95F
BLUE HILL        N/A     62  61  96 NE17G29   29.94S
NORWOOD        CLOUDY    66  65  96 VRB6      29.94S
MARSHFIELD     CLOUDY    64  64 100 N10G17    29.91F FOG
PLYMOUTH       HVY RAIN  66  63  90 NE20G26   29.89F VSB 3/4
TAUNTON        RAIN      65  64  97 N7        29.89F FOG
NEW BEDFORD    HVY RAIN  67  65  93 NE14G23   29.86F FOG
$$

MAZALL-200600-
CAPE COD AND THE ISLANDS

CITY           SKY/WX    TMP DP  RH WIND       PRES   REMARKS
FALMOUTH       CLOUDY    66  66 100 NE17G26   29.86F FOG
HYANNIS        CLOUDY    70  69  97 NE13      29.83F FOG
CHATHAM        CLOUDY    67  67 100 NE16G24   29.86F FOG
PROVINCETOWN   LGT RAIN  64  63  96 NE14      29.90F FOG
NANTUCKET      FOG       66  66 100 NE21G26   29.80F VSB 1
MARTHAS VNYRD  CLOUDY    70  68  93 NE16G28   29.83F FOG
$$

MAZALL-200600-
CENTRAL AND WESTERN MASSACHUSETTS

CITY           SKY/WX    TMP DP  RH WIND       PRES   REMARKS
WORCESTER      FOG       63  62  97 NE9G29    29.97S VSB 1/4
FITCHBURG      LGT RAIN  68  65  90 N8G18     29.99S
ORANGE         CLOUDY    68  65  90 N10       29.98F
SPRINGFIELD    CLOUDY    70  63  78 NE14      29.93F
WESTFIELD      CLOUDY    70  65  84 N14       29.95S
NORTH ADAMS    CLOUDY    66  63  90 N3        30.00S
PITTSFIELD     CLOUDY    66  61  84 NE7       29.99S
$$

RIZALL-200600-
RHODE ISLAND

CITY           SKY/WX    TMP DP  RH WIND       PRES   REMARKS
PROVIDENCE     LGT RAIN  66  66 100 NE15      29.90F
NEWPORT        LGT RAIN  67  67 100 N16       29.86S
BLOCK ISLAND   LGT RAIN  66  65  96 NE23G30     N/A
SMITHFIELD     CLOUDY    64  63  96 NE14G22   29.93F
WESTERLY       LGT RAIN  68  66  93 N13G21    29.84F FOG
$$

CTZALL-200600-
CONNECTICUT

CITY           SKY/WX    TMP DP  RH WIND       PRES   REMARKS
BRADLEY INTL   CLOUDY    70  65  84 N14       29.92F
HARTFORD       CLOUDY    71  65  81 N10G20    29.90F
BRIDGEPORT     CLOUDY    71  65  81 N21G31    29.84F
DANBURY        CLOUDY    70  64  81 NE13      29.91F
GROTON         CLOUDY    68  65  90 N18G29    29.83S
NEW HAVEN      CLOUDY    70  64  81 N18       29.85F
CHESTER        CLOUDY    70  64  83 NE10      29.88F
MERIDEN        CLOUDY    70  64  81 N12       29.89S
WILLIMANTIC    CLOUDY    69  66  90 NE13G21   29.91S
OXFORD         CLOUDY    68  64  87 NE13G24   29.91F
$$

MEZ002-015-021-024-NHZ003-005-008-011-012-014-VTZ005-008-200600-
NORTHERN NEW ENGLAND

CITY           SKY/WX    TMP DP  RH WIND       PRES   REMARKS
PORTLAND ME    CLOUDY    65  64  97 NE8       30.04F FOG
BANGOR ME      CLOUDY    67  65  93 N3        30.08F FOG
CONCORD NH     CLOUDY    68  65  90 N6        30.02F
MANCHESTER NH  CLOUDY    68  65  90 NE9       29.99S
NASHUA NH      CLOUDY    66  66 100 NE8       30.00S
PORTSMOUTH NH  CLOUDY    64  64 100 NE14      30.00S FOG
JAFFREY NH     CLOUDY    65  65 100 VRB6      30.02F FOG
KEENE NH       CLOUDY    68  64  87 N7        30.00F
BURLINGTON VT  CLEAR     63  60  90 CALM      30.03F
MT. WASHINGTON FOG       50  50 100 SE20        N/A  VSB 1/16
$$

NYZ052-076-200600-
EASTERN NEW YORK

CITY           SKY/WX    TMP DP  RH WIND       PRES   REMARKS
ALBANY         MOCLDY    64  60  87 N6        29.99F
NEW YORK CITY  CLOUDY    72  65  78 N14       29.84F
$$

ANZALL-200600-
MARINE OBSERVATIONS

STATION/POSITION TIME  TEMP    WIND        PRES    VSBY  WAVE
                       AIR SEA DIR/SP/G                  HT/PER
                 (UTC) (F)     (DEG/KT/KT) (MB)    (MI)  (FT/S)
BOSTON BUOY      0350   63 62   20/ 16/ 19 1013.7          5/12
BUZZARDS BAY     0400   66      30/ 24/ 26 1010.5F
NANTUCKET SOUND  0450   65 68   50/ 19/ 23 1009.4F         4/ 4
MASS BAY-STELLWA 0404   64 63   30/ 17/ 19 1013.4F         4/ 5
ISLE OF SHOALS   0400   61      30/ 21/ 25 1015.3F
S OF BLOCK IS    NOT AVBL
$$

......................KEY.........................
  SKY/WX - SKY CONDITION/PRESENT WEATHER
  TMP    - TEMPERATURE IN FAHRENHEIT
  DWPT   - DEWPOINT IN FAHRENHEIT
  RH     - RELATIVE HUMIDITY IN PERCENT
  WIND   - DIRECTION AND SPEED IN MPH
  PRES   - MEAN SEA LEVEL PRESSURE IN INCHES OF HG
  WCI    - WIND CHILL INDEX
  VSB    - VISIBILITY IN MILES
  HX     - HEAT INDEX
  TC     - TEMPERATURE IN CELSIUS
  VRB    - VARIABLE WIND DIRECTION
  N/A    - NOT AVAILABLE




USA.gov is the U.S. government's official web portal to all federal, state and local government web resources and services.